Miscellaneous Local Product
Issued by NWS Hastings, NE

Home | Current Version | Previous Version | Graphics & Text | Print | Product List | Glossary On
Versions: 1 2 3 4 5 6 7 8 9 10 11 12 13 14 15 16 17 18 19 20 21 22 23 24 25 26 27 28 29 30 31 32 33 34 35 36 37 38 39 40 41 42 43 44 45 46 47 48 49 50
000
AXUS43 KGID 030202
MISGRI

GID CWA HOURLY WEATHER ROUNDUP
NATIONAL WEATHER SERVICE HASTINGS NE
800 PM CST MON MAR 02 2015

NOTE: "FAIR" INDICATES FEW OR NO CLOUDS BELOW 12,000 FEET WITH NO
SIGNIFICANT WEATHER AND/OR OBSTRUCTIONS TO VISIBILITY.

...SOUTH CENTRAL NEBRASKA...

CITY           SKY/WX    TMP DP  RH WIND       PRES   REMARKS
GRAND ISLAND   CLOUDY    31  16  54 S16G23    29.94F WCI  20
HASTINGS       CLOUDY    31  15  52 S13       29.92F WCI  21
KEARNEY        CLOUDY    28  14  54 S13       29.91F WCI  18
ORD            CLOUDY    31  14  49 S14G20    29.88F WCI  21
YORK           CLOUDY    32  18  55 S17       29.97F WCI  21
AURORA         CLOUDY    33  15  49 S16       29.96F WCI  22
LEXINGTON      CLOUDY    32  21  64 S17       29.86F WCI  21
HOLDREGE       CLOUDY    31  16  54 SE12G18   29.89F WCI  21
HEBRON         CLOUDY    32  17  54 S14G21    29.99F WCI  22

...NEBRASKA PANHANDLE...

CITY           SKY/WX    TMP DP  RH WIND       PRES   REMARKS
CHADRON        CLOUDY    35  24  64 S13       29.65F WCI  26
ALLIANCE       PTCLDY    27  23  85 SE10      29.66F WCI  17
SCOTTSBLUFF    CLEAR     30  23  75 E14       29.63F WCI  19
SIDNEY         CLOUDY    29  24  82 SE8       29.63F WCI  21

...WESTERN AND NORTH CENTRAL NEBRASKA...

CITY           SKY/WX    TMP DP  RH WIND       PRES   REMARKS
VALENTINE      CLOUDY    35  20  54 S15       29.76F WCI  25
AINSWORTH      CLOUDY    32  20  60 S10       29.77F WCI  24
ONEILL         CLOUDY    36  17  46 S17G26    29.88F WCI  25
BROKEN BOW     CLOUDY    32  19  58 S20G26    29.84F WCI  20
IMPERIAL         N/A     30  26  85 SE18      29.72F FOG     WCI  18
NORTH PLATTE   CLOUDY    31  23  72 S14       29.79F WCI  21
MCCOOK         CLOUDY    33  24  69 SE15G21   29.81F WCI  23

...EASTERN NEBRASKA...

CITY           SKY/WX    TMP DP  RH WIND       PRES   REMARKS
NORFOLK        CLOUDY    35  18  49 SE14      29.95F WCI  26
SO SIOUX CITY  CLOUDY    35  22  58 SE13      30.02F WCI  26
TEKAMAH        CLOUDY    34  22  61 SE15      30.04F WCI  24
COLUMBUS       CLOUDY    34  16  47 S13       29.99F WCI  25
ALBION         CLOUDY    34  16  47 S16       29.93F WCI  23
OMAHA EPPLEY   CLOUDY    34  20  56 SE18      30.05F WCI  23
MILLARD        CLOUDY    35  20  54 SE14      30.05F WCI  26
LINCOLN        CLOUDY    35  16  45 S20       30.02F WCI  24
NEBRASKA CITY  CLOUDY    33  11  40 SE15      30.08F WCI  23
BEATRICE       CLOUDY    33  17  50 SE15G21   30.03F WCI  23
FALLS CITY     CLOUDY    34  19  54 SE14      30.10F WCI  25

...NORTHERN KANSAS...

CITY           SKY/WX    TMP DP  RH WIND       PRES   REMARKS
GOODLAND       CLOUDY    31  29  92 S30       29.70F FOG     WCI  16
HILL CITY      CLOUDY    31  22  69 S15       29.87F WCI  20
NORTON         CLOUDY    30  19  64 SE15      29.85F WCI  19
PHILLIPSBURG   MOCLDY    34  21  60 SE14G20   29.91F WCI  24
SMITH CENTER   CLEAR     28  19  69 SE21      29.93F WCI  15
BELOIT         CLEAR     32  19  59 SE12      29.99F WCI  23
HAYS           CLOUDY    30  16  55 S15       29.92F WCI  19
RUSSELL        CLOUDY    30  22  72 S13       29.93F WCI  20
CONCORDIA      CLOUDY    31  21  66 SE15      30.00F WCI  20
SALINA         CLOUDY    34  24  67 S13       30.02F WCI  25
TOPEKA         CLOUDY    34  21  59 SE9       30.12F WCI  27



USA.gov is the U.S. government's official web portal to all federal, state and local government web resources and services.